Location: ??
(34.7252°N, 135.5457°E)
Time: 07:04:01
(UTC+00:00)

Cosmos 2016 Rocket - Pass Details

Date: 24 September 2020
Orbit: 946 x 1001 km, 83.0° (Epoch: 28 October)

Event Time Altitude Azimuth Distance (km) Brightness Sun altitude
Rises 19:39:28 0° 352° (N) 3,624 7.0 -14.8°
Reaches altitude 10° 19:41:58 10° 351° (N) 2,673 6.3 -14.3°
Maximum altitude 19:48:04 79° 266° (W) 966 3.9 -13.1°
Drops below altitude 10° 19:54:08 10° 180° (S) 2,662 6.2 -11.9°
Sets 19:56:37 0° 179° (S) 3,608 6.9 -11.4°
